Starlink 32580

operational
NORAD ID: 62075 Int'l Des: 2024-217 Owner: SPXS Country: US Constellation: starlink
LEOCIRCULAR

About Starlink 32580

Description loading...

Live Position

Loading 3D Globe...

Upcoming Passes

Altitude History

Altitude vs Time

uPlot chart will show altitude changes over time

Two-Line Element Set

1 62075U 24217U 25257.84589730 .00034397 00000-0 86537-3 0 9999
2 62075 53.1617 279.6803 0000439 241.0968 118.9993 15.39642561 46659
Epoch: Sep 14, 2025 • Age: 26 hours

Current Status

Altitude 452.6 km
Velocity 7.64 km/s
Sub-Earth Point -20.23°S, 76.71°W
Launch Date Nov 24, 2024
Age 0.8 years
Type internet

Technical Details

Classification Payload
Mass 730.00 kg
Dry Mass 700.00 kg
Total Mass 730.00 kg
Length 0.30 m
Diameter 4.10 m
Span 29.00 m
Shape Box + pan
Manufacturer SPXS
Bus Type Starlink V2M
Phase Status In Orbit
Owner/State SPXS/US

Large Constellations

Loading constellations...